Flag Weather past 2 weeks in Neuwied, Rhineland-Palatinate, Germany

Now
39 °F

Mostly cloudy.


Feels Like: 34 °F
Forecast: 33 / 43 °F
Wind: 8 mph from East

Location: Buechel

Current Time: Nov 20, 2014 at 10:15:03 PM

Latest Report: Nov 20, 2014 at 9:20 PM


Visibility: 4 mi

Pressure: 30.27 "Hg

Humidity: 87%

Dew point: 36 °F

Location of NeuwiedLocation

Historic Weather in Neuwied — Graph

°F

Neuwied temperature yesterday

Maximum temperature yesterday: 48 °F (at 1:20 PM)
Minimum temperature yesterday: 39 °F (at 7:20 PM)
Average temperature yesterday: 42 °F

Past Weeks' High & Low Weather Summary

 TemperatureHumidityPressure
High50 °F (Nov 8, 3:20 PM)100% (Nov 5, 8:20 PM)30.27 "Hg (Nov 5, 8:20 PM)
Low32 °F (Nov 7, 1:20 AM)66% (Nov 19, 1:20 PM)29.53 "Hg (Nov 16, 6:20 AM)
Average43 °F94%29.79 "Hg
* Reported Nov 5 8:20 PM — Nov 20 8:20 PM, Neuwied, Weather by CustomWeather, © 2014

Note: Actual official high and low records may vary slightly from our data, if they occured in-between our weather recording intervals... More about our weather records

Advertising

Neuwied weather history for previous 24 hours

 ConditionsComfort  
Time TempWeatherWind HumidityBarometerVisibility
8:20 PM
Nov 20
39 °FMostly cloudy.9 mph93%30.27 "Hg4 mi
7:20 PM39 °FFog.9 mph93%30.24 "Hg3 mi
6:20 PM39 °FFog.8 mph93%30.24 "Hg3 mi
5:20 PM39 °FFog.7 mph93%30.24 "Hg3 mi
4:20 PM41 °FFog.8 mph93%30.24 "Hg3 mi
3:20 PM41 °FFog.8 mph93%30.27 "Hg3 mi
2:20 PM41 °FFog.8 mph93%30.27 "Hg3 mi
1:20 PM41 °FMore clouds than sun.8 mph93%30.27 "Hg4 mi
12:20 PM39 °FFog.8 mph100%30.27 "Hg3 mi
11:45 AM39 °FFog.7 mph100%30.27 "Hg1 mi
11:20 AM39 °FFog.7 mph100%30.27 "Hg1 mi
11:00 AM39 °FFog.6 mph93%30.27 "Hg1 mi
10:20 AM37 °FFog.7 mph100%30.27 "Hg0 mi
9:20 AM37 °FFog.6 mph100%30.27 "Hg0 mi
8:20 AM37 °FFog.5 mph93%30.27 "Hg0 mi
7:20 AM36 °FFog.5 mph100%30.27 "Hg0 mi
6:20 AM36 °FFog.5 mph100%30.27 "Hg0 mi
5:20 AM37 °FFog.5 mph100%30.24 "Hg0 mi
4:20 AM37 °FChilly.5 mph100%30.24 "Hg0 mi
3:20 AM39 °FChilly.5 mph93%30.27 "Hg2 mi
12:20 AM39 °FChilly.7 mph100%30.24 "Hg2 mi
11:20 PM
Nov 19
39 °FChilly.6 mph93%30.24 "Hg1 mi
10:20 PM39 °FChilly.5 mph100%30.24 "Hg1 mi
Weather by CustomWeather, © 2014

See weather overviewHow to use our weather pages